Location: Gönnheim
(49.4488°N, 8.2383°E)
Time: 06:55:05
(UTC+00:00)

Cosmos 44 - Pass Details

Date: 19 May 2025
Orbit: 588 x 763 km, 65.1° (Epoch: 22 June)

Event Time Altitude Azimuth Distance (km) Brightness Sun altitude
Rises 21:16:13 0° 315° (NW) 2,909 8.1 -15.0°
Reaches altitude 10° 21:18:33 10° 308° (NW) 2,023 6.8 -15.2°
Maximum altitude 21:22:47 39° 240° (WSW) 989 4.1 -15.6°
Enters shadow 21:25:21 22° 185° (S) 1,470 4.5 -15.8°
